Weather History for Port Angeles, WA

Change the Weather History Date:

Wednesday, April 10, 2013

  Actual Average Record
Temperature  
Mean Temperature 50 °F -  
Max Temperature 57 °F 54 °F 70 °F (1956)
Min Temperature 43 °F 38 °F 30 °F (1986)
Degree Days  
Heating Degree Days 15    
Moisture  
Dew Point 41 °F    
Average Humidity 79    
Maximum Humidity 97    
Minimum Humidity 49    
Precipitation  
Precipitation 0.33 in - - ()
Sea Level Pressure  
Sea Level Pressure 30.04 in    
Wind  
Wind Speed 7 mph (West)    
Max Wind Speed 23 mph    
Max Gust Speed 36 mph    
Visibility 8 miles    
Events Rain    
Averages and records for this station are not official NWS values.
T = Trace of Precipitation, MM = Missing Value Source: NWS Daily Summary

Daily Weather History Graph

Daily Weather History Graph

Search for Another Location

Airport:

Trip Planner

Search our weather history database for the weather conditions in past years. The results will help you decide how hot, cold, wet, or windy it might be!

Date:

Astronomy

Apr. 10, 2013 Rise Set
Actual Time 6:33 AM PDT 7:57 PM PDT
Civil Twilight 6:01 AM PDT 8:30 PM PDT
Nautical Twilight 5:22 AM PDT 9:09 PM PDT
Astronomical Twilight 4:40 AM PDT 9:51 PM PDT
Moon 6:30 AM PDT (4/10) 8:44 PM PDT (4/10)
Length of Visible Light 14h 29m
Length of Day
13h 24m
New Moon, 0% of the Moon is Illuminated
Apr 10
New Moon
Apr 18
First Quarter
Apr 25
Full
May 2
Last Quarter
May 9
New

Hourly Weather History & Observations

Time (PDT) Temp. Windchill Dew Point Humidity Pressure Visibility Wind Dir Wind Speed Gust Speed Precip Events Conditions
12:53 AM 44.1 °F - 41.0 °F 89% 30.09 in 10.0 mi Calm Calm - N/A   Mostly Cloudy
1:53 AM 43.0 °F - 41.0 °F 93% 30.07 in 10.0 mi Calm Calm - N/A   Mostly Cloudy
2:53 AM 44.1 °F 42.5 °F 42.1 °F 93% 30.03 in 10.0 mi WSW 3.5 mph - N/A   Overcast
3:53 AM 44.1 °F 42.5 °F 42.1 °F 93% 30.00 in 10.0 mi SW 3.5 mph - N/A   Mostly Cloudy
4:53 AM 44.1 °F - 43.0 °F 96% 29.93 in 10.0 mi Calm Calm - N/A   Mostly Cloudy
5:53 AM 45.0 °F 42.6 °F 43.0 °F 93% 29.90 in 10.0 mi South 4.6 mph - 0.00 in Rain Light Rain
6:53 AM 45.0 °F 41.2 °F 43.0 °F 93% 29.89 in 4.0 mi WSW 6.9 mph - 0.06 in Rain Light Rain
7:09 AM 45.0 °F 42.6 °F 43.0 °F 93% 29.88 in 4.0 mi NW 4.6 mph - 0.02 in Rain Light Rain
7:22 AM 45.0 °F 41.8 °F 43.0 °F 93% 29.88 in 3.0 mi West 5.8 mph - 0.04 in Rain Light Rain
7:41 AM 45.0 °F 42.6 °F 44.1 °F 97% 29.88 in 2.5 mi SSW 4.6 mph - 0.08 in Rain Rain
7:53 AM 45.0 °F - 44.1 °F 97% 29.89 in 2.0 mi Calm Calm - 0.12 in Rain Light Rain
8:09 AM 46.0 °F - 44.1 °F 93% 29.88 in 3.0 mi Calm Calm - 0.04 in Rain Light Rain
8:53 AM 48.9 °F - 46.0 °F 90% 29.91 in 6.0 mi West 6.9 mph - 0.13 in Rain Light Rain
9:53 AM 48.2 °F - 46.4 °F 93% 29.95 in 9.0 mi WNW 16.1 mph 24.2 mph N/A Rain Light Rain
10:53 AM 51.8 °F - 44.6 °F 76% 29.97 in 10.0 mi West 16.1 mph - N/A   Mostly Cloudy
11:53 AM 55.0 °F - 43.0 °F 64% 30.02 in 10.0 mi WNW 20.7 mph 28.8 mph 0.02 in   Mostly Cloudy
12:53 PM 55.9 °F - 41.0 °F 57% 30.05 in 10.0 mi WNW 23.0 mph 35.7 mph N/A   Partly Cloudy
1:53 PM 55.9 °F - 39.9 °F 55% 30.08 in 10.0 mi WNW 19.6 mph 34.5 mph N/A   Clear
2:53 PM 55.9 °F - 37.9 °F 51% 30.12 in 10.0 mi WNW 23.0 mph 33.4 mph N/A   Clear
3:53 PM 57.0 °F - 39.0 °F 51% 30.14 in 10.0 mi West 17.3 mph 33.4 mph N/A   Clear
4:53 PM 55.9 °F - 37.0 °F 49% 30.17 in 10.0 mi WNW 20.7 mph 31.1 mph N/A   Clear
5:53 PM 54.0 °F - 37.9 °F 55% 30.18 in 10.0 mi WNW 17.3 mph - N/A   Clear
6:53 PM 51.1 °F - 39.0 °F 63% 30.18 in 10.0 mi WNW 16.1 mph 26.5 mph N/A   Clear
7:53 PM 48.9 °F - 37.9 °F 66% 30.20 in 10.0 mi WNW 15.0 mph - N/A   Clear
8:53 PM 46.9 °F - 39.9 °F 77% 30.22 in 10.0 mi NW 12.7 mph - N/A   Clear
9:53 PM 45.0 °F 41.8 °F 39.0 °F 80% 30.23 in 10.0 mi West 5.8 mph - N/A   Clear
10:53 PM 44.1 °F 40.1 °F 39.0 °F 82% 30.24 in 10.0 mi West 6.9 mph - N/A   Clear
11:53 PM 45.0 °F 40.1 °F 37.9 °F 76% 30.25 in 10.0 mi West 9.2 mph - N/A   Clear